Погода в Туркестане

Погода в Туркестане : погода сейчас, прогноз погоды и архив. Всё, что Вы хотите узнать о погоде в Туркестане!

Хотите узнать прогноз погоды в Туркестане? Тогда Вам сюда: Погода в Туркестане

Поиск расширенной информации на нашем сайте:

Полезная информация:

Другие новости

Новости СМИ2

Главная страница сайта

Новости сайта

03.07.2017

Напоминаем, что на нашем специализированном сайте Метеоцентр.Азия вы можете получить высокодетализированные автоматические прогнозы погоды по пунктам России, СНГ и мира в авиационном формате (включающие направление и скорость ветра, видимость, явления погоды, количество и форму облачности, нижнюю и верхнюю границу облачности).

Рекомендуем:

Погода в Туркестане - сегодня

Время (UTC), дата Ветер
(°,м/с) 
Видим.   Явления Облачность Т
(°С)
Тd
(°С)
f(%) Тe
(°С)
Pmin
(гПа)
dP
(гПа)
Po
(мм)
O2
(г/м3)
Тmin Tmax R s Состояние
почвы
03 22.05.19 300 (СЗ) 20000 м    3/0 верхняя 
[Ci fib]
+17.2 +9.2 59 +17  1014.5  2.6  743  280      0.0     
06 22.05.19 290 (З) 20000 м    6/1 1000 м верхняя 
[Cu hum|Ci sp]
+20.3 -3.1 20 +20  1016.2  1.8  744  279  +12.2    0.0     
09 22.05.19 330 (СЗ) 20000 м    8/0 верхняя 
[Cs]
+21 -5.8 16 +21  1016.1  744  279           
12 22.05.19 280 (З) 20000 м    9/0 верхняя 
[Cs]
+20.4 -8.1 14 +20  1016.4  0.3  744  280           
15 22.05.19 320 (СЗ) 20000 м    8/0 верхняя 
[Cs]
+18.1 -2.7 24 +18  1017.2  0.6  745  282    +21.5       
18 22.05.19 330 (СЗ) н/о    ясно 
+11.2 +0.6 48 +10  1018.5  0.7  745  288    +21.5       
21 22.05.19 350 (С) н/о    1/0 верхняя 
[Ci sp]
+10 +1.1 54 +11  1018.4  -0.2  745  289           
00 23.05.19 010 (С) 20000 м    3/0 верхняя 
[Ci sp]
+9.3 +1 56 +9  1018.2  -0.3  745  290           
03 23.05.19 080 (В) 20000 м    3/0 верхняя 
[Ci sp]
+18.8 +1 30 +19  1017.8  0.4  745  281           
06 23.05.19 080 (В) 20000 м    3/0 верхняя 
[Ci sp]
+22.1 -3.9 17 +22  1016.5  -1  745  278  +7.8         
09 23.05.19 030 (СВ) 20000 м    8/0 верхняя 
[Cs]
+24.7 -2.5 16 +25  1014  -2.2  743  275           
12 23.05.19 020 (С) 20000 м    8/0 верхняя 
[Cs]
+26 -4.4 13 +26  1012.4  -1.5  742  273           
15 23.05.19 080 (В) 20000 м    9/0 верхняя 
[Cs]
+22.4 -3.1 18 +22  1012.9  0.2  742  277    +26.4       
18 23.05.19 050 (СВ) н/о    5/0 верхняя 
[Ci sp]
+20 -3.7 20 +20  1012.6  -0.5  742  279    +26.4       
21 23.05.19 060 (СВ) н/о    3/0 верхняя 
[Ci sp]
+18 -0.8 28 +19  1011.7  -1  741  280           
00 24.05.19 040 (СВ) 20000 м    4/0 верхняя 
[Ci sp]
+17.9 -1.8 26 +18  1010.7  -1  740  280           
03 24.05.19 040 (СВ) 20000 м    10/0 верхняя 
[Cs]
+22 -0.1 23 +22  1010.4  0.1  740  276           
06 24.05.19 060 (СВ) 20000 м    10/0 верхняя 
[Cs]
+24.8 +1.2 21 +25  1009.3  -0.9  739  273  +17.5         
09 24.05.19 080 (В) 20000 м    10/4 600 м кучево-дожд., средняя 
[Cb cap|Ac As]
+25.3 +2.6 23 +25  1009  -0.2  739  272           
12 24.05.19 220 (ЮЗ) 10 км  слаб. ливневой дождь  10/10 600 м кучево-дожд. 
[Cb cap]
+22 +6.1 36 +22  1010.6  1.3  740  275           
15 24.05.19 170 (Ю) 10 км  слаб. ливневой дождь  9/9 600 м кучево-дожд. 
[Cb cap]
+16.7 +11.4 71 +19  1013  742  279    +25.7  0.0     
18 24.05.19 100 (В) н/о  {ливн. осадки}  8/3 600 м кучево-дожд., средняя 
[Cb cap|Ac As]
+15.8 +9.5 66 +17  1014  0.8  742  281    +25.7  0.0     
21 24.05.19 090 (В) н/о    8/3 600 м кучево-дожд., средняя, верхняя 
[Cb cap|Ac As|Ci sp]
+14.8 +10.7 76 +16  1013.6  -0.4  742  282           
00 25.05.19 080 (В) 10 км    10/10 600 м кучево-дожд. 
[Cb cap]
+14.8 +10 73 +16  1013.6  742  282           
03 25.05.19 090 (В) 10 км  в посл. час ливневой дождь  10/10 600 м кучево-дожд. 
[Cb cap]
+15.9 +12.9 82 +21  1014.4  0.9  743  280      0.7     
Время (UTC), дата Ветер
(°,м/с) 
Видим.   Явления Облачность Т
(°С)
Тd
(°С)
f(%) Тe
(°С)
Pmin
(гПа)
dP
(гПа)
Po
(мм)
O2
(г/м3)
Тmin Tmax R s Состояние
почвы

Для получения пояснительной информации подведите курсор к названию столбца.

ПОГОДА в Туркестане - архив

Всё, что Вы хотите узнать о погоде в Туркестане - удобно и подробно!

Выберите нужную дату (начиная с 1 января 2018* года) и нажмите кнопку "Найти".
Будут отображены архивные сводки погоды по пункту Туркестан, начиная с указанной даты.


Отображать данные в формате CSV (для использования в таблицах Excel)


Внимание! Наш архив погоды предназначен исключительно для личного некоммерческого использования в познавательных целях. Если Вам необходимы официальные справки о состоянии погоды (для производственных, юридических, коммерческих и т.п. целей), обращайтесь в органы Росгидромета.

*Примечание: данная дата относится к архиву по метеостанциям СССР (Россия, СНГ, Балтия).
Архив по метеостанциям Зарубежной Европы и Азии (кроме Китая) хранится 10 дней, по другим регионам земного шара (Китай, Африка, Америка, Австралия, Океания) - 1 день.

Туркестан - район местоположения метеостанции


Название, широта, долгота, высота метеостанции:
Туркестан 43.3°ш. 68.2°д. 207 м над ур. моря [Казахстан]

Дополнительная информация

В oтличие oт бoльшинства пoгoдных сайтoв мы публикуем пoдрoбную метеoинфoрмацию в детальнoм прoфессиoнальнoм фoрмате.

Характеристики температуры и влажнoсти вoздуха измеряются на высoте 2 м в тени вдали oт зданий и деревьев.
Скoрoсть ветра измеряется на высoте 10 м (на урoвне рoста челoвека скoрoсть ветра ниже в 1.5-2 раза). Если метеoстанция нахoдится в гoрoде или в лесу, тo скoрoсть ветра занижена на 2-4 м/с пo сравнению с oткрытым местoм. Скoрoсть ветра над акватoриями крупных рек и oзёр, а также на вершинах хoлмoв на 2-5 м/с выше, чем в oбычных услoвиях.
Атмoсфернoе давление в разных тoчках местнoсти мoжет значительнo oтличаться oт давления на метеoстанции, в зависимoсти oт услoвий рельефа (при пoдъёме на 10 м давление пoнижается примернo на 1 мм рт.ст.).